Volver al catálogo

STARLINK-4748

ActivoComunicacionesVLEO
NORAD 53823·PAYLOAD·🇺🇸 United States

Lanzado Sep 19, 2022 desde Cape Canaveral Space Force Station

Loading…

Próximos Pases (próximas 24 horas)

TLE

ActualizadoSource: CelesTrak SupGP

Época: Sep 15, 2026, 01:37 UTC

1 53823C 22114F   26258.06784722  .00049133  00000+0  14520-2 0  2581
2 53823  53.1576 116.7641 0001261  85.7591  30.0628 15.34358657    18

Sigue STARLINK-4748 en tiempo real con AllMySat

Download on the App Store